| time (UTC) | temp C | wind direction | speed KPH | gust KPH | rain 1hr cm | rain 24hr cm | rain mn cm | humidity % | barometer mb |
| 20260505194101 | 16 | 90 | 0.0 | 3.2 | 0.00 | 0.00 | 0.00 | 45 | 1012.7 |
| 20260505193201 | 16 | 90 | 0.0 | 3.2 | 0.00 | 0.00 | 0.00 | 48 | 1013.0 |
| 20260505192301 | 16 | 90 | 0.0 | 0.0 | 0.00 | 0.00 | 0.00 | 47 | 1012.9 |
| 20260505191401 | 16 | 90 | 0.0 | 3.2 | 0.00 | 0.00 | 0.00 | 45 | 1012.7 |
| 20260505190501 | 17 | 90 | 0.0 | 3.2 | 0.00 | 0.00 | 0.00 | 45 | 1012.8 |
| 20260505185601 | 18 | 90 | 1.6 | 6.4 | 0.00 | 0.00 | 0.00 | 42 | 1012.9 |
| 20260505183801 | 18 | 90 | 1.6 | 6.4 | 0.00 | 0.00 | 0.00 | 42 | 1012.6 |
| 20260505182901 | 18 | 90 | 0.0 | 6.4 | 0.00 | 0.00 | 0.00 | 42 | 1012.6 |
| 20260505182001 | 19 | 90 | 1.6 | 6.4 | 0.00 | 0.00 | 0.00 | 39 | 1012.6 |
| 20260505181101 | 20 | 90 | 0.0 | 3.2 | 0.00 | 0.00 | 0.00 | 38 | 1012.6 |
| 20260505180201 | 20 | 90 | 0.0 | 3.2 | 0.00 | 0.00 | 0.00 | 38 | 1012.4 |
| 20260505175301 | 20 | 112 | 0.0 | 3.2 | 0.00 | 0.00 | 0.00 | 37 | 1012.3 |
| 20260505174401 | 20 | 90 | 0.0 | 3.2 | 0.00 | 0.00 | 0.00 | 37 | 1012.2 |
| 20260505173501 | 21 | 90 | 1.6 | 3.2 | 0.00 | 0.00 | 0.00 | 37 | 1012.2 |
| 20260505172601 | 21 | 112 | 0.0 | 3.2 | 0.00 | 0.00 | 0.00 | 36 | 1012.4 |
| 20260505171701 | 22 | 112 | 1.6 | 3.2 | 0.00 | 0.00 | 0.00 | 35 | 1012.1 |
| 20260505170801 | 23 | 112 | 3.2 | 6.4 | 0.00 | 0.00 | 0.00 | 33 | 1012.2 |
| 20260505165901 | 23 | 90 | 3.2 | 6.4 | 0.00 | 0.00 | 0.00 | 33 | 1012.2 |
| 20260505165001 | 24 | 158 | 3.2 | 6.4 | 0.00 | 0.00 | 0.00 | 32 | 1012.0 |
| 20260505164101 | 25 | 112 | 3.2 | 6.4 | 0.00 | 0.00 | 0.00 | 31 | 1012.0 |
| 20260505163201 | 25 | 112 | 3.2 | 6.4 | 0.00 | 0.00 | 0.00 | 31 | 1011.9 |
| 20260505161401 | 25 | 158 | 4.8 | 9.7 | 0.00 | 0.00 | 0.00 | 28 | 1011.9 |
| 20260505152001 | 26 | 90 | 4.8 | 12.9 | 0.00 | 0.00 | 0.00 | 22 | 1012.0 |